• In Netherlands
  • List of Countries
  • For 7 days
  • Water Temperature
  • Satellite Maps
  • Weather Map
  • Weather Widgets
  • user-avatar
    Login

    Hourly Weather Encamp

    Today, 19 January, Friday

    Time Temperature Precipitation Wind Pressure Humidity
    00:00 -1°C° 0 mm 2 mps 623 mmHg 73%
    01:00 -2°C° 0 mm 2 mps 623 mmHg 77%
    02:00 -2°C° 0 mm 2 mps 623 mmHg 80%
    03:00 -2°C° 0 mm 2 mps 622 mmHg 83%
    04:00 -2°C° 0 mm 2 mps 622 mmHg 83%
    05:00 -2°C° 0 mm 2 mps 622 mmHg 83%
    06:00 -2°C° 0 mm 2 mps 622 mmHg 84%
    07:00 -2°C° 0 mm 2 mps 622 mmHg 80%
    08:00 -1°C° 0 mm 2 mps 623 mmHg 76%
    09:00 +1°C° 0 mm 2 mps 623 mmHg 72%
    10:00 +2°C° 0 mm 2 mps 624 mmHg 70%
    11:00 +3°C° 0 mm 2 mps 624 mmHg 68%
    12:00 +4°C° 0 mm 2 mps 625 mmHg 66%
    13:00 +3°C° 0 mm 3 mps 625 mmHg 66%
    14:00 +3°C° 0 mm 3 mps 624 mmHg 66%
    15:00 +3°C° 0 mm 3 mps 624 mmHg 66%
    16:00 +1°C° 0 mm 3 mps 624 mmHg 71%
    17:00 -1°C° 0 mm 3 mps 623 mmHg 75%
    18:00 -2°C° 0 mm 2 mps 623 mmHg 79%
    19:00 -4°C° 0 mm 3 mps 623 mmHg 78%
    20:00 -4°C° 0 mm 3 mps 624 mmHg 76%
    21:00 -4°C° 0 mm 3 mps 624 mmHg 75%
    22:00 -4°C° 0 mm 3 mps 624 mmHg 75%
    23:00 -4°C° 0 mm 3 mps 624 mmHg 76%

    Tomorrow, 20 January, Saturday

    Time Temperature Precipitation Wind Pressure Humidity
    00:00 -4°C° 0 mm 3 mps 624 mmHg 76%
    01:00 -4°C° 0 mm 3 mps 624 mmHg 77%
    02:00 -4°C° 0 mm 2 mps 624 mmHg 79%
    03:00 -4°C° 0 mm 2 mps 624 mmHg 80%
    04:00 -4°C° 0 mm 2 mps 624 mmHg 79%
    05:00 -4°C° 0 mm 2 mps 623 mmHg 78%
    06:00 -4°C° 0 mm 2 mps 623 mmHg 78%
    07:00 -3°C° 0 mm 2 mps 624 mmHg 74%
    08:00 0°C° 0 mm 1 mps 624 mmHg 70%
    09:00 +1°C° 0 mm 1 mps 624 mmHg 66%
    10:00 +1°C° 0.1 mm 2 mps 624 mmHg 65%
    11:00 +2°C° 0.1 mm 2 mps 625 mmHg 65%
    12:00 +2°C° 0.1 mm 3 mps 625 mmHg 64%
    13:00 +2°C° 0.4 mm 3 mps 624 mmHg 68%
    14:00 +2°C° 0.4 mm 3 mps 624 mmHg 73%
    15:00 +3°C° 0.4 mm 3 mps 623 mmHg 77%
    16:00 +2°C° 0.4 mm 3 mps 623 mmHg 80%
    17:00 +1°C° 0.4 mm 4 mps 623 mmHg 83%
    18:00 0°C° 0.4 mm 4 mps 623 mmHg 86%
    19:00 0°C° 0.3 mm 4 mps 623 mmHg 86%
    20:00 +1°C° 0.3 mm 3 mps 623 mmHg 87%
    21:00 +1°C° 0.3 mm 3 mps 624 mmHg 87%
    22:00 +2°C° 0.5 mm 3 mps 624 mmHg 88%
    23:00 +2°C° 0.5 mm 3 mps 624 mmHg 88%

    Day after tomorrow, 21 January, Sunday

    Time Temperature Precipitation Wind Pressure Humidity
    00:00 +2°C° 0.5 mm 3 mps 624 mmHg 89%
    01:00 +2°C° 0.5 mm 3 mps 624 mmHg 89%
    02:00 +2°C° 0.5 mm 3 mps 625 mmHg 90%
    03:00 +2°C° 0.5 mm 3 mps 625 mmHg 90%
    04:00 +2°C° 0.7 mm 3 mps 625 mmHg 90%
    05:00 +2°C° 0.7 mm 3 mps 625 mmHg 90%
    06:00 +2°C° 0.7 mm 3 mps 625 mmHg 90%
    07:00 +2°C° 0.4 mm 3 mps 626 mmHg 88%
    08:00 +2°C° 0.4 mm 3 mps 626 mmHg 87%
    09:00 +3°C° 0.4 mm 3 mps 626 mmHg 86%
    10:00 +3°C° 0.2 mm 3 mps 627 mmHg 83%
    11:00 +4°C° 0.2 mm 3 mps 627 mmHg 81%
    12:00 +5°C° 0.2 mm 4 mps 628 mmHg 78%
    13:00 +5°C° 0 mm 4 mps 628 mmHg 78%
    14:00 +5°C° 0 mm 3 mps 628 mmHg 78%
    15:00 +5°C° 0 mm 3 mps 628 mmHg 78%
    16:00 +4°C° 0 mm 3 mps 627 mmHg 81%
    17:00 +3°C° 0 mm 3 mps 627 mmHg 83%
    18:00 +2°C° 0 mm 3 mps 627 mmHg 86%
    19:00 +2°C° 0 mm 3 mps 627 mmHg 85%
    20:00 +2°C° 0 mm 3 mps 627 mmHg 85%
    21:00 +2°C° 0 mm 3 mps 628 mmHg 85%
    22:00 +1°C° 0 mm 3 mps 628 mmHg 85%
    23:00 +1°C° 0 mm 3 mps 627 mmHg 84%

    22 January, Monday

    Time Temperature Precipitation Wind Pressure Humidity
    00:00 +1°C° 0 mm 3 mps 627 mmHg 84%
    01:00 +1°C° 0 mm 3 mps 627 mmHg 83%
    02:00 +1°C° 0 mm 3 mps 627 mmHg 83%
    03:00 0°C° 0 mm 3 mps 627 mmHg 82%
    04:00 0°C° 0 mm 3 mps 627 mmHg 83%
    05:00 0°C° 0 mm 3 mps 627 mmHg 83%
    06:00 0°C° 0 mm 3 mps 627 mmHg 84%
    07:00 +1°C° 0 mm 3 mps 627 mmHg 81%
    08:00 +2°C° 0 mm 3 mps 628 mmHg 77%
    09:00 +2°C° 0 mm 3 mps 628 mmHg 74%
    10:00 +4°C° 0 mm 3 mps 629 mmHg 71%
    11:00 +5°C° 0 mm 3 mps 629 mmHg 67%
    12:00 +7°C° 0 mm 3 mps 630 mmHg 64%
    13:00 +7°C° 0 mm 3 mps 629 mmHg 66%
    14:00 +7°C° 0 mm 3 mps 629 mmHg 67%
    15:00 +7°C° 0 mm 3 mps 629 mmHg 68%
    16:00 +5°C° 0 mm 2 mps 628 mmHg 74%
    17:00 +3°C° 0 mm 2 mps 628 mmHg 80%
    18:00 +2°C° 0 mm 2 mps 628 mmHg 86%
    19:00 +1°C° 0 mm 2 mps 628 mmHg 82%
    20:00 +1°C° 0 mm 2 mps 628 mmHg 78%
    21:00 +1°C° 0 mm 2 mps 628 mmHg 74%
    22:00 +1°C° 0 mm 2 mps 628 mmHg 75%
    23:00 +1°C° 0 mm 2 mps 628 mmHg 75%

    23 January, Tuesday

    Time Temperature Precipitation Wind Pressure Humidity
    00:00 +1°C° 0 mm 2 mps 628 mmHg 76%
    01:00 +1°C° 0 mm 2 mps 628 mmHg 77%
    02:00 +1°C° 0 mm 2 mps 628 mmHg 79%
    03:00 +1°C° 0 mm 2 mps 628 mmHg 80%
    04:00 +1°C° 0 mm 2 mps 628 mmHg 81%
    05:00 +1°C° 0 mm 2 mps 628 mmHg 82%
    06:00 +1°C° 0 mm 2 mps 628 mmHg 83%
    07:00 +2°C° 0 mm 2 mps 629 mmHg 81%
    08:00 +3°C° 0 mm 2 mps 629 mmHg 79%
    09:00 +3°C° 0 mm 2 mps 630 mmHg 77%
    10:00 +5°C° 0 mm 2 mps 631 mmHg 73%
    11:00 +6°C° 0 mm 2 mps 631 mmHg 69%
    12:00 +9°C° 0 mm 1 mps 632 mmHg 65%
    13:00 +9°C° 0 mm 1 mps 631 mmHg 66%
    14:00 +9°C° 0 mm 1 mps 631 mmHg 67%
    15:00 +9°C° 0 mm 1 mps 631 mmHg 68%
    16:00 +7°C° 0 mm 1 mps 630 mmHg 74%
    17:00 +5°C° 0 mm 1 mps 630 mmHg 79%
    18:00 +3°C° 0 mm 1 mps 629 mmHg 85%
    19:00 +3°C° 0 mm 1 mps 629 mmHg 84%
    20:00 +3°C° 0 mm 1 mps 629 mmHg 83%
    21:00 +3°C° 0 mm 1 mps 629 mmHg 82%
    22:00 +3°C° 0 mm 1 mps 629 mmHg 81%
    23:00 +2°C° 0 mm 1 mps 629 mmHg 80%

    24 January, Wednesday

    Time Temperature Precipitation Wind Pressure Humidity
    00:00 +2°C° 0 mm 1 mps 629 mmHg 79%
    01:00 +2°C° 0 mm 1 mps 628 mmHg 79%
    02:00 +2°C° 0 mm 1 mps 628 mmHg 79%
    03:00 +2°C° 0 mm 1 mps 628 mmHg 79%
    04:00 +2°C° 0 mm 1 mps 628 mmHg 79%
    05:00 +2°C° 0 mm 1 mps 628 mmHg 79%
    06:00 +2°C° 0 mm 1 mps 628 mmHg 79%
    07:00 +3°C° 0 mm 1 mps 628 mmHg 76%
    08:00 +4°C° 0 mm 1 mps 629 mmHg 73%
    09:00 +5°C° 0 mm 1 mps 629 mmHg 70%
    10:00 +7°C° 0 mm 1 mps 629 mmHg 66%
    11:00 +7°C° 0 mm 2 mps 630 mmHg 61%
    12:00 +9°C° 0 mm 2 mps 630 mmHg 56%
    13:00 +9°C° 0 mm 2 mps 630 mmHg 58%
    14:00 +8°C° 0 mm 2 mps 630 mmHg 59%
    15:00 +8°C° 0 mm 2 mps 629 mmHg 60%
    16:00 +6°C° 0 mm 2 mps 628 mmHg 66%
    17:00 +5°C° 0 mm 1 mps 627 mmHg 72%
    18:00 +3°C° 0 mm 1 mps 627 mmHg 78%
    19:00 +3°C° 0 mm 1 mps 627 mmHg 74%
    20:00 +2°C° 0 mm 1 mps 627 mmHg 71%
    21:00 +2°C° 0 mm 1 mps 626 mmHg 67%
    22:00 +2°C° 0 mm 1 mps 626 mmHg 64%
    23:00 +1°C° 0 mm 1 mps 626 mmHg 61%
    Show more